Location: Central Falls
(41.8900°N, 71.3929°W)
Time: 11:20:41
(UTC+00:00)

A-11 Canister half - Pass Details

Date: 07 December 2023
Orbit: 1526 x 1682 km, 47.3° (Epoch: 20 February)

Event Time Altitude Azimuth Distance (km) Brightness Sun altitude
Rises 03:49:18 0° 290° (WNW) 4,929 11.9 -68.3°
Enters shadow 03:50:35 - 291° (WNW) 4,529 11.6 -68.4°
Reaches altitude 10° 03:52:31 10° 292° (WNW) 3,930 - -68.6°
Maximum altitude 04:02:39 78° 20° (NNE) 1,674 - -69.4°
Drops below altitude 10° 04:12:27 10° 107° (ESE) 3,814 - -70.0°
Sets 04:15:30 0° 108° (ESE) 4,777 - -70.2°
